Regional Weather Roundup
Issued by NWS Sioux Falls, SD

Home | Current Version | Previous Version | Graphics & Text | Print | Product List | Glossary On
Versions: 1 2 3 4 5 6 7 8 9 10 11 12 13 14 15 16 17 18 19 20 21 22 23 24 25 26 27 28 29 30 31 32 33 34 35 36 37 38 39 40 41 42 43 44 45 46 47 48 49 50
000
ASUS43 KFSD 162310
RWRFSD

WEATHER ROUNDUP FOR SE SOUTH DAKOTA/SW MINNESOTA/NW IOWA
NATIONAL WEATHER SERVICE SIOUX FALLS SD
600 PM CDT TUE SEP 16 2014

NOTE: "FAIR" INDICATES FEW OR NO CLOUDS BELOW 12,000 FEET WITH NO
SIGNIFICANT WEATHER AND OR OBSTRUCTIONS TO VISIBILITY.


SDZ038>040-050-052>070-170000-
SOUTHEAST SOUTH DAKOTA

CITY           SKY/WX    TMP DP  RH WIND       PRES   REMARKS
CHAMBERLAIN    SUNNY     75  58  55 S6        29.91F
HURON          SUNNY     73  54  51 S10       29.92F
MADISON        FAIR      66  50  55 S15       29.99F
MITCHELL       CLOUDY    72  56  57 S15       29.94F
SIOUX FALLS    MOSUNNY   68  49  50 S15       29.99F
WINNER         FAIR      79  54  41 CALM      29.92F
YANKTON        PTSUNNY   68  52  56 S12       29.98F
$$

MNZ071-072-080-081-089-090-097-098-170000-
SOUTHWEST MINNESOTA

CITY           SKY/WX    TMP DP  RH WIND       PRES   REMARKS
FAIRMONT       SUNNY     68  43  40 S6        30.04F
JACKSON        SUNNY     66  45  45 S7        30.04F
LUVERNE        CLOUDY    68  45  42 S7        30.01F
MARSHALL       CLOUDY    66  46  48 S9        29.99F
MONTEVIDEO     CLOUDY    68  46  45 S6        29.99F
PIPESTONE      CLOUDY    64  46  52 S9        30.01S
REDWOOD FALLS  SUNNY     68  45  43 S8        30.00F
TRACY          CLOUDY    66  49  53 CALM      30.01S
WINDOM         MOSUNNY   66  45  45 S8        30.03S
WORTHINGTON    CLOUDY    64  45  48 S9        30.02F
$$

IAZ001>003-012>014-020>022-031-032-NEZ013-014-SDZ071-170000-
NORTHWEST IOWA

CITY           SKY/WX    TMP DP  RH WIND       PRES   REMARKS
CHEROKEE       SUNNY     66  47  49 S6        30.03F
DENISON        SUNNY     66  48  52 S8        30.03F
ESTHERVILLE    SUNNY     65  44  46 SW8       30.04F
LE MARS        SUNNY     68  48  49 S9        30.02F
ORANGE CITY    SUNNY     68  46  45 S8        30.02F
SHELDON        SUNNY     66  50  55 S9G15     30.01F
SIOUX CITY     SUNNY     69  48  47 S8        30.02F
SPENCER        SUNNY     67  46  47 S8        30.04F
STORM LAKE     SUNNY     64  52  63 VRB5G12   30.04F
$$

ABBREVIATIONS USED IN REMARKS
   TC - TEMPERATURE IN CELSIUS
  WCI - WIND CHILL INDEX
   HX - HEAT INDEX
  VSB - VISIBILITY



USA.gov is the U.S. government's official web portal to all federal, state and local government web resources and services.